Date,TemperatureHighF,TemperatureAvgF,TemperatureLowF,DewpointHighF,DewpointAvgF,DewpointLowF,HumidityHigh,HumidityAvg,HumidityLow,PressureMaxIn,PressureMinIn,WindSpeedMaxMPH,WindSpeedAvgMPH,GustSpeedMaxMPH,PrecipitationSumIn
2013-4-1,85.6,69.3,48.7,58.2,51.6,46.5,99,60,28,30.01,29.90,4,1,8,0.00
2013-4-2,75.0,66.3,52.2,64.9,58.0,13.1,87,75,64,29.98,29.85,12,4,24,0.01
2013-4-3,54.0,49.2,45.9,49.1,46.4,44.5,99,90,74,30.08,29.90,10,4,20,0.50
2013-4-4,52.9,47.0,43.2,45.8,42.4,35.5,97,85,58,30.12,30.03,55,5,55,0.04
2013-4-5,74.8,57.8,40.3,50.8,44.9,40.0,99,66,35,30.17,29.98,5,2,11,0.00
2013-4-6,77.4,65.6,54.7,59.3,53.7,48.5,87,67,44,29.99,29.80,10,5,26,0.00
2013-4-7,74.8,67.7,60.8,62.7,60.1,57.0,89,77,65,29.86,29.70,9,5,20,0.00
2013-4-8,77.5,71.6,65.3,65.8,62.9,59.3,85,74,65,29.72,29.62,12,6,21,0.00
2013-4-9,85.6,75.4,68.0,68.3,65.2,61.3,91,72,50,29.68,29.59,10,5,24,0.00
2013-4-10,74.5,73.4,72.9,69.3,68.3,67.8,88,84,81,29.69,29.65,5,4,13,0.00
2013-4-11,69.3,51.0,39.7,43.1,35.5,30.6,86,59,29,29.89,29.75,8,3,11,0.00
2013-4-12,82.4,63.2,42.3,50.0,44.4,39.3,97,57,22,29.93,29.79,4,1,8,0.00
2013-4-13,82.6,69.1,52.2,53.6,48.8,43.5,83,51,26,29.95,29.74,8,2,14,0.00
2013-4-14,82.9,70.6,58.3,66.0,58.8,49.0,85,67,52,29.73,29.52,8,5,14,0.00
2013-4-15,89.2,77.4,68.0,68.5,66.8,64.9,96,72,48,29.70,29.56,11,6,16,0.00
2013-4-16,91.0,79.4,72.0,69.6,67.1,65.2,87,68,45,29.85,29.71,9,5,13,0.00
2013-4-17,87.8,77.9,74.1,72.0,70.4,67.8,91,79,53,29.84,29.58,11,7,23,0.00
2013-4-18,76.1,56.5,44.8,72.5,48.5,34.6,99,76,48,30.09,29.51,11,7,28,0.79
2013-4-19,67.5,51.4,38.5,40.8,32.2,24.3,85,53,22,30.22,30.07,10,3,22,0.00
2013-4-20,75.9,61.6,48.0,43.2,37.5,30.2,67,44,21,30.15,29.98,8,4,21,0.00
2013-4-21,76.8,63.2,49.3,53.7,47.9,39.5,83,59,38,30.17,30.03,7,3,13,0.00
2013-4-22,81.3,68.9,55.0,60.5,54.5,46.6,79,61,47,30.07,29.80,8,4,20,0.00
2013-4-23,68.4,56.3,43.0,63.6,52.0,39.8,93,86,72,30.12,29.75,12,6,22,0.01
2013-4-24,43.0,41.7,41.2,40.7,40.0,39.3,95,93,91,30.16,30.11,10,7,24,0.06
2013-4-29,87.6,75.8,61.5,67.3,62.7,58.2,98,67,43,29.86,29.75,8,3,15,0.00
2013-4-30,87.1,73.6,61.5,65.6,62.4,57.2,95,70,45,29.79,29.70,7,3,11,0.00